When you browse on this site, cookies collect data to enhance your experience and personalize the content and advertising you see.
Visit our Privacy Policy to learn more. By continuing to use the site, you agree to this use of cookies and data.
  • In Lithuania
  • List of Countries
  • For 7 days
  • Water Temperature
  • Weather Map
  • Weather Widgets
  • user-avatar
    Login

    Hourly Weather Harare

    Today, 7 June, Sunday

    Time Temperature Precipitation Wind Pressure Humidity
    00:00 +11°C° 0 mm 3 mps 641 mmHg 77%
    01:00 +11°C° 0 mm 3 mps 641 mmHg 82%
    02:00 +10°C° 0 mm 3 mps 641 mmHg 86%
    03:00 +10°C° 0 mm 3 mps 640 mmHg 87%
    04:00 +9°C° 0 mm 3 mps 640 mmHg 88%
    05:00 +9°C° 0 mm 3 mps 640 mmHg 90%
    06:00 +10°C° 0 mm 3 mps 640 mmHg 84%
    07:00 +11°C° 0 mm 3 mps 641 mmHg 79%
    08:00 +11°C° 0 mm 3 mps 642 mmHg 74%
    09:00 +14°C° 0 mm 3 mps 642 mmHg 62%
    10:00 +17°C° 0 mm 3 mps 643 mmHg 50%
    11:00 +20°C° 0 mm 2 mps 643 mmHg 38%
    12:00 +21°C° 0 mm 2 mps 643 mmHg 34%
    13:00 +23°C° 0 mm 2 mps 642 mmHg 30%
    14:00 +24°C° 0 mm 2 mps 642 mmHg 27%
    15:00 +23°C° 0 mm 2 mps 642 mmHg 30%
    16:00 +20°C° 0 mm 3 mps 641 mmHg 34%
    17:00 +19°C° 0 mm 3 mps 641 mmHg 38%
    18:00 +17°C° 0 mm 3 mps 641 mmHg 48%
    19:00 +15°C° 0 mm 2 mps 641 mmHg 58%
    20:00 +13°C° 0 mm 2 mps 641 mmHg 68%
    21:00 +12°C° 0 mm 2 mps 640 mmHg 74%
    22:00 +10°C° 0 mm 2 mps 640 mmHg 81%
    23:00 +10°C° 0 mm 2 mps 640 mmHg 87%

    Tomorrow, 8 June, Monday

    Time Temperature Precipitation Wind Pressure Humidity
    00:00 +9°C° 0 mm 2 mps 640 mmHg 89%
    01:00 +9°C° 0 mm 2 mps 640 mmHg 91%
    02:00 +9°C° 0 mm 2 mps 640 mmHg 92%
    03:00 +9°C° 0 mm 2 mps 640 mmHg 92%
    04:00 +8°C° 0 mm 2 mps 639 mmHg 92%
    05:00 +8°C° 0 mm 2 mps 639 mmHg 92%
    06:00 +9°C° 0 mm 2 mps 640 mmHg 85%
    07:00 +12°C° 0 mm 2 mps 640 mmHg 78%
    08:00 +13°C° 0 mm 2 mps 641 mmHg 72%
    09:00 +16°C° 0 mm 2 mps 642 mmHg 60%
    10:00 +18°C° 0 mm 2 mps 642 mmHg 49%
    11:00 +21°C° 0 mm 2 mps 643 mmHg 37%
    12:00 +23°C° 0 mm 2 mps 642 mmHg 33%
    13:00 +24°C° 0 mm 2 mps 642 mmHg 30%
    14:00 +25°C° 0 mm 2 mps 642 mmHg 26%
    15:00 +23°C° 0 mm 2 mps 641 mmHg 28%
    16:00 +21°C° 0 mm 2 mps 641 mmHg 30%
    17:00 +20°C° 0 mm 2 mps 640 mmHg 31%
    18:00 +18°C° 0 mm 2 mps 640 mmHg 42%
    19:00 +16°C° 0 mm 2 mps 640 mmHg 52%
    20:00 +12°C° 0 mm 3 mps 640 mmHg 62%
    21:00 +13°C° 0 mm 2 mps 640 mmHg 67%
    22:00 +12°C° 0 mm 2 mps 640 mmHg 73%
    23:00 +10°C° 0 mm 2 mps 640 mmHg 79%

    Day after tomorrow, 9 June, Tuesday

    Time Temperature Precipitation Wind Pressure Humidity
    00:00 +11°C° 0 mm 1 mps 640 mmHg 81%
    01:00 +10°C° 0 mm 1 mps 639 mmHg 84%
    02:00 +10°C° 0 mm 1 mps 639 mmHg 87%
    03:00 +10°C° 0 mm 1 mps 639 mmHg 87%
    04:00 +9°C° 0 mm 1 mps 639 mmHg 88%
    05:00 +9°C° 0 mm 1 mps 639 mmHg 88%
    06:00 +11°C° 0 mm 1 mps 640 mmHg 81%
    07:00 +13°C° 0 mm 1 mps 641 mmHg 73%
    08:00 +14°C° 0 mm 1 mps 641 mmHg 66%
    09:00 +18°C° 0 mm 1 mps 642 mmHg 55%
    10:00 +21°C° 0 mm 1 mps 643 mmHg 44%
    11:00 +24°C° 0 mm 1 mps 643 mmHg 34%
    12:00 +24°C° 0 mm 1 mps 643 mmHg 31%
    13:00 +25°C° 0 mm 1 mps 642 mmHg 28%
    14:00 +25°C° 0 mm 1 mps 641 mmHg 25%
    15:00 +24°C° 0 mm 1 mps 641 mmHg 28%
    16:00 +23°C° 0 mm 1 mps 640 mmHg 31%
    17:00 +21°C° 0 mm 1 mps 640 mmHg 33%
    18:00 +19°C° 0 mm 1 mps 640 mmHg 40%
    19:00 +16°C° 0 mm 2 mps 640 mmHg 46%
    20:00 +14°C° 0 mm 2 mps 640 mmHg 53%
    21:00 +13°C° 0 mm 2 mps 640 mmHg 58%
    22:00 +13°C° 0 mm 2 mps 640 mmHg 63%
    23:00 +12°C° 0 mm 2 mps 640 mmHg 68%

    10 June, Wednesday

    Time Temperature Precipitation Wind Pressure Humidity
    00:00 +10°C° 0 mm 2 mps 639 mmHg 72%
    01:00 +10°C° 0 mm 2 mps 639 mmHg 77%
    02:00 +9°C° 0 mm 2 mps 638 mmHg 81%
    03:00 +9°C° 0 mm 2 mps 639 mmHg 83%
    04:00 +9°C° 0 mm 2 mps 639 mmHg 85%
    05:00 +10°C° 0 mm 1 mps 639 mmHg 88%
    06:00 +11°C° 0 mm 1 mps 640 mmHg 81%
    07:00 +13°C° 0 mm 1 mps 640 mmHg 74%
    08:00 +14°C° 0 mm 1 mps 641 mmHg 67%
    09:00 +17°C° 0 mm 2 mps 642 mmHg 55%
    10:00 +19°C° 0 mm 2 mps 642 mmHg 43%
    11:00 +21°C° 0 mm 2 mps 643 mmHg 31%
    12:00 +23°C° 0 mm 2 mps 642 mmHg 28%
    13:00 +24°C° 0 mm 3 mps 641 mmHg 25%
    14:00 +25°C° 0 mm 3 mps 641 mmHg 22%
    15:00 +24°C° 0 mm 3 mps 640 mmHg 25%
    16:00 +21°C° 0 mm 2 mps 640 mmHg 28%
    17:00 +20°C° 0 mm 2 mps 640 mmHg 32%
    18:00 +18°C° 0 mm 2 mps 639 mmHg 38%
    19:00 +16°C° 0 mm 2 mps 639 mmHg 45%
    20:00 +14°C° 0 mm 2 mps 639 mmHg 52%
    21:00 +14°C° 0 mm 2 mps 639 mmHg 53%
    22:00 +13°C° 0 mm 2 mps 639 mmHg 55%
    23:00 +13°C° 0 mm 2 mps 639 mmHg 57%

    11 June, Thursday

    Time Temperature Precipitation Wind Pressure Humidity
    00:00 +12°C° 0 mm 2 mps 639 mmHg 62%
    01:00 +11°C° 0 mm 1 mps 638 mmHg 67%
    02:00 +10°C° 0 mm 1 mps 638 mmHg 73%
    03:00 +10°C° 0 mm 1 mps 638 mmHg 75%
    04:00 +10°C° 0 mm 1 mps 638 mmHg 77%
    05:00 +10°C° 0 mm 1 mps 638 mmHg 78%
    06:00 +12°C° 0 mm 2 mps 639 mmHg 72%
    07:00 +13°C° 0 mm 2 mps 640 mmHg 66%
    08:00 +14°C° 0 mm 3 mps 641 mmHg 59%
    09:00 +17°C° 0 mm 2 mps 641 mmHg 51%
    10:00 +19°C° 0 mm 2 mps 641 mmHg 43%
    11:00 +23°C° 0 mm 2 mps 642 mmHg 35%
    12:00 +24°C° 0 mm 2 mps 641 mmHg 32%
    13:00 +25°C° 0 mm 2 mps 641 mmHg 29%
    14:00 +26°C° 0 mm 2 mps 640 mmHg 26%
    15:00 +24°C° 0 mm 2 mps 640 mmHg 29%
    16:00 +23°C° 0 mm 2 mps 640 mmHg 31%
    17:00 +21°C° 0 mm 2 mps 639 mmHg 34%
    18:00 +19°C° 0 mm 2 mps 639 mmHg 39%
    19:00 +17°C° 0 mm 2 mps 639 mmHg 44%
    20:00 +15°C° 0 mm 2 mps 639 mmHg 49%
    21:00 +14°C° 0 mm 2 mps 638 mmHg 53%
    22:00 +14°C° 0 mm 1 mps 638 mmHg 57%
    23:00 +13°C° 0 mm 1 mps 638 mmHg 61%

    12 June, Friday

    Time Temperature Precipitation Wind Pressure Humidity
    00:00 +13°C° 0 mm 1 mps 638 mmHg 63%
    01:00 +12°C° 0 mm 1 mps 638 mmHg 65%
    02:00 +11°C° 0 mm 0 mps 638 mmHg 68%
    03:00 +12°C° 0 mm 1 mps 638 mmHg 68%
    04:00 +12°C° 0 mm 1 mps 638 mmHg 68%
    05:00 +12°C° 0 mm 1 mps 638 mmHg 68%
    06:00 +13°C° 0 mm 2 mps 639 mmHg 63%
    07:00 +15°C° 0 mm 2 mps 640 mmHg 57%
    08:00 +16°C° 0 mm 3 mps 640 mmHg 52%
    09:00 +19°C° 0 mm 2 mps 641 mmHg 45%
    10:00 +21°C° 0 mm 2 mps 642 mmHg 38%
    11:00 +25°C° 0 mm 2 mps 642 mmHg 30%
    12:00 +26°C° 0 mm 1 mps 642 mmHg 27%
    13:00 +27°C° 0 mm 1 mps 642 mmHg 24%
    14:00 +28°C° 0 mm 1 mps 641 mmHg 21%
    15:00 +27°C° 0 mm 1 mps 641 mmHg 23%
    16:00 +25°C° 0 mm 1 mps 640 mmHg 26%
    17:00 +23°C° 0 mm 1 mps 640 mmHg 29%
    18:00 +21°C° 0 mm 1 mps 640 mmHg 33%
    19:00 +19°C° 0 mm 1 mps 639 mmHg 36%
    20:00 +16°C° 0 mm 1 mps 639 mmHg 40%
    21:00 +16°C° 0 mm 1 mps 639 mmHg 43%
    22:00 +15°C° 0 mm 1 mps 640 mmHg 46%
    23:00 +15°C° 0 mm 1 mps 640 mmHg 49%
    Show more